Regional Weather Roundup
Issued by NWS

Home | Current Version | Previous Version | Text Only | Print | Product List | Glossary Off
Versions: 1 2 3 4 5 6 7 8 9 10 11 12 13 14 15 16 17 18 19 20 21 22 23 24 25 26 27 28 29 30 31 32 33 34 35 36 37 38 39 40 41 42 43 44 45 46 47 48 49 50

000
ASUS45 KTFX 251910
RWRMT
MONTANA REGIONAL WEATHER ROUNDUP
NATIONAL WEATHER SERVICE GREAT FALLS MT
100 PM MDT THU MAY 25 2017

NOTE: "FAIR" INDICATES FEW OR NO CLOUDS BELOW 12000 FEET WITH NO
SIGNIFICANT WEATHER AND/OR OBSTRUCTIONS TO VISIBILITY.

MTZ001>007-043-252000-
WEST OF THE DIVIDE

CITY           SKY/WX    TMP DP  RH WIND       PRES   REMARKS
KALISPELL      PTSUNNY   59  40  49 VRB3      29.79S
MISSOULA       MOSUNNY   60  33  36 N5        29.80S
BUTTE          CLOUDY    48  27  44 N7        29.83S
MULLAN PASS    CLOUDY    48  25  40 VRB3      29.84S
ANACONDA         N/A     48  28  46 N7        29.83S
EUREKA           N/A     61  37  41 NW7       29.79S
HAMILTON         N/A     55  34  44 N6        29.81S
PLAINS           N/A     62  34  35 S1        29.81F
RONAN            N/A     60  35  39 W2        29.86S
$$

MTZ008-052>055-252000-
SOUTHWEST MONTANA

CITY           SKY/WX    TMP DP  RH WIND       PRES   REMARKS
BOZEMAN        CLOUDY    50  38  63 SW5       29.83S
DILLON         CLOUDY    53  28  38 NE15G22   29.81R
W YELLOWSTONE  CLOUDY    46  23  39 E10G22    29.81S
ENNIS          PTSUNNY   48  32  53 NE12      29.88R
THREE FORKS      N/A     53  36  52 E3        29.83S
TWIN BRIDGES     N/A     52  26  36 N15       29.83S
$$

MTZ009-010-012-014-046-048-049-054-252000-
EAST SLOPES AND CENTRAL MONTANA

CITY           SKY/WX    TMP DP  RH WIND       PRES   REMARKS
CUT BANK       PTSUNNY   55  35  47 NW32G43   29.74R
GREAT FALLS    MOSUNNY   57  31  37 NW30G38   29.74R
MALMSTROM AFB  MOSUNNY   58  31  36 NW23G35   29.73R
HELENA         LGT RAIN  55  37  50 N3        29.79R
CHOTEAU          N/A     57  30  35 N26G40    29.78R
CONRAD           N/A     58  44  59 NW31      29.78R
$$

MTZ011-013-016-021-045-047-050-051-252000-
NORTH CENTRAL MONTANA

CITY           SKY/WX    TMP DP  RH WIND       PRES   REMARKS
HAVRE          CLOUDY    51  39  63 NW28G37   29.62R
LEWISTOWN      CLOUDY    47  36  65 NW18G35   29.68R
N BAR RANCH    CLOUDY    45  36  70 NW21G39   29.67R
CHINOOK          N/A     52  39  62 W21G32    29.58R
FORT BENTON      N/A     57  34  41 CALM        N/A
$$

MTZ017>020-022>027-061-062-252000-
NORTHEAST MONTANA

CITY           SKY/WX    TMP DP  RH WIND       PRES   REMARKS
GLASGOW        PTSUNNY   61  39  44 W30G40    29.43R
JORDAN           N/A     55  40  56 NW28G36   29.51R
SIDNEY         CLOUDY    60  44  55 W23G31    29.41R
WOLF POINT     CLOUDY    61  40  45 W22G33    29.40R
MALTA          CLOUDY    59  41  51 NW32G39   29.49R
PLENTYWOOD       N/A     57  39  51 W26G33    29.32R
POPLAR           N/A     57  43  58 W26G36    29.39R
SCOBEY           N/A     57  33  40 W30       29.38R
$$

MTZ028>42-056>058-252000-
SOUTHCENTRAL AND SOUTHEAST MONTANA

CITY           SKY/WX    TMP DP  RH WIND       PRES   REMARKS
BAKER          CLOUDY    57  39  51 W22G36    29.52R
BILLINGS       CLOUDY    56  38  50 W21G28    29.68R
LIVINGSTON     CLOUDY    46  36  68 SW24G30   29.78R
MILES CITY     CLOUDY    58  40  51 W25G31    29.53R
BIG TIMBER     MOSUNNY   52  37  58 W28G40    29.78R
EKALAKA          N/A     59  38  45 SW15      29.57R
FORSYTH          N/A     55  43  62 W25G32    29.57R
LAUREL           N/A     55  34  45 W18       29.72R
ROUNDUP          N/A     54  35  48 W33       29.60R
$$

REGIONAL REPORTS...DAKOTAS

CITY           SKY/WX    TMP DP  RH WIND       PRES   REMARKS
WILLISTON      CLOUDY    60  46  59 SW17      29.37R
MINOT          SUNNY     70  37  29 SW18G28   29.37R
DICKINSON      SUNNY     65  37  35 W31G41    29.43R
BEACH          CLOUDY    57  41  54 W25G32    29.50S
CROSBY         CLOUDY    59  50  72 SW18G24   29.31S
TIOGA          PTSUNNY   59  50  72 SW25G35   29.37R
WATFORD CITY     N/A     59  45  58 SW23      29.40R
BISMARCK       SUNNY     74  34  23 W10G20    29.43S
GRAND FORKS    CLOUDY    69  47  45 S28G36    29.48F
FARGO          CLOUDY    68  47  46 S22G30    29.50S
BUFFALO SD       N/A     66  36  32 W32G38    29.46R
RAPID CITY     CLOUDY    66  27  23 VRB3      29.55R
$$

REGIONAL REPORTS...WYOMING/IDAHO/WASHINGTON

CITY           SKY/WX    TMP DP  RH WIND       PRES   REMARKS
GILLETTE       MOSUNNY   60  35  39 NW15G23   29.62R
SHERIDAN       CLOUDY    52  37  56 NW31G38   29.67R
BUFFALO WY     CLOUDY    56  37  49 N29G38    29.68R
CODY           CLOUDY    51  29  42 NE13      29.74R
YELLOWSTONE LA   N/A     41  22  46 VRB3      29.84R
IDAHO FALLS    MOSUNNY   57  27  31 NW8       29.79S
SALMON         CLOUDY    55  28  35 NW5       29.76S
BOISE          SUNNY     61  32  33 VRB7G18   29.75S
SPOKANE        CLOUDY    56  39  53 W5        29.85R
$$

REGIONAL REPORTS...ALBERTA

CITY           SKY/WX    TMP DP  RH WIND       PRES   REMARKS
EDMONTON       PTSUNNY   59  43  55 NW20G30   29.70S
CALGARY        MOSUNNY   55  37  50 N22G36    29.77R
LETHBRIDGE     PTSUNNY   55  37  50 NW23G33   29.74R
MEDICINE HAT   CLOUDY    54  39  58 NW23G37   29.60R
MILK RIVER       N/A     55  37  50 N35G44      N/A
$$

REGIONAL REPORTS...SASKATCHEWAN

CITY           SKY/WX    TMP DP  RH WIND       PRES   REMARKS
SWIFT CURRENT  PTSUNNY   55  41  58 NW24G32   29.36R
REGINA         PTSUNNY   54  45  71 W12G21    29.26R
SASKATOON      LGT RAIN  50  39  66 E12G17    29.33R
CYPRESS HILLS    N/A     39  37  93 NW13G26     N/A  WCI  32
VAL MARIE        N/A     52  43  71 NW22G31     N/A
ROCKGLEN         N/A     54  41  62 W20G32      N/A
ASSINIBOIA       N/A     57  39  51 N26G33      N/A
$$



USA.gov is the U.S. government's official web portal to all federal, state and local government web resources and services.